FW9685 Weather Reports


Display with metric or nautical units.
time (UTC)temp
F
wind
direction
speed
MPH
gust
MPH
rain 1hr
in
rain 24hr
in
rain mn
in
humidity
%
barometer
mb
20260503213100 73 171 9.0 21.0 0.00 0.00 0.00 37 1017.4
20260503211559 73 163 11.0 19.0 0.00 0.00 0.00 37 1017.6
20260503210058 74 177 9.0 17.0 0.00 0.00 0.00 36 1018.1
20260503204606 73 200 13.0 20.0 0.00 0.00 0.00 36 1018.4
20260503203107 73 187 9.0 20.0 0.00 0.00 0.00 36 1018.5
20260503201558 73 190 10.0 20.0 0.00 0.00 0.00 37 1018.7
20260503200057 72 171 7.0 19.0 0.00 0.00 0.00 38 1019.0
20260503194622 72 174 16.0 24.0 0.00 0.00 0.00 39 1019.1
20260503193100 73 169 11.0 26.0 0.00 0.00 0.00 39 1019.4
20260503191603 72 170 11.0 21.0 0.00 0.00 0.00 40 1020.0
20260503190101 71 172 13.0 22.0 0.00 0.00 0.00 40 1020.2
20260503184556 70 169 11.0 21.0 0.00 0.00 0.00 41 1020.4
20260503183104 70 180 11.0 21.0 0.00 0.00 0.00 43 1020.6
20260503181552 70 166 13.0 21.0 0.00 0.00 0.00 42 1021.3
20260503180105 69 159 11.0 21.0 0.00 0.00 0.00 40 1021.5
20260503174553 69 157 9.0 18.0 0.00 0.00 0.00 45 1021.7
20260503173145 69 167 12.0 21.0 0.00 0.00 0.00 45 1021.8
20260503171553 68 158 8.0 21.0 0.00 0.00 0.00 46 1022.0
20260503130110 55 178 5.0 9.0 0.00 0.00 0.00 72 1022.5
20260503120109 52 175 4.0 6.0 0.00 0.00 0.00 75 1021.8
20260503100109 54 171 6.0 9.0 0.00 0.00 0.00 70 1021.7
20260503081558 56 174 5.0 9.0 0.00 0.00 0.00 68 1021.9
20260503071552 56 156 7.0 10.0 0.00 0.00 0.00 69 1022.6
20260503054556 57 146 7.0 10.0 0.00 0.00 0.00 67 1022.8
20260503053053 58 146 6.0 8.0 0.00 0.00 0.00 66 1022.7
20260503051551 58 153 5.0 9.0 0.00 0.00 0.00 65 1022.7
20260503050055 58 147 5.0 8.0 0.00 0.00 0.00 67 1022.6
20260503044555 58 135 4.0 8.0 0.00 0.00 0.00 66 1022.8
20260503043102 59 140 7.0 9.0 0.00 0.00 0.00 65 1022.8
20260503041558 59 140 6.0 9.0 0.00 0.00 0.00 65 1023.0
20260503040057 59 138 4.0 8.0 0.00 0.00 0.00 64 1022.8
20260503034601 60 138 6.0 8.0 0.00 0.01 0.00 63 1022.6
20260503033100 60 140 6.0 7.0 0.00 0.01 0.00 62 1022.5
20260503031610 61 141 5.0 8.0 0.00 0.01 0.00 61 1022.5
20260503030100 61 138 5.0 7.0 0.00 0.01 0.00 62 1022.3
20260503024559 61 130 4.0 8.0 0.00 0.01 0.00 60 1022.4
20260503023058 61 127 6.0 8.0 0.00 0.01 0.00 59 1022.0
20260503021557 62 132 6.0 8.0 0.00 0.01 0.00 57 1022.0
20260503020059 62 135 4.0 5.0 0.00 0.01 0.00 54 1021.9
20260503014559 63 136 4.0 7.0 0.00 0.01 0.00 52 1021.9
20260503013059 64 150 4.0 7.0 0.00 0.01 0.00 49 1021.8
20260503011606 65 146 3.0 5.0 0.00 0.01 0.00 47 1021.7
20260503010054 65 146 5.0 8.0 0.00 0.01 0.00 45 1021.8
20260503004559 65 167 3.0 7.0 0.00 0.01 0.00 44 1021.7
20260503003056 66 159 5.0 9.0 0.00 0.01 0.00 43 1021.7
20260503001554 66 153 6.0 9.0 0.00 0.01 0.00 44 1021.6
20260503000107 66 109 6.0 13.0 0.00 0.01 0.00 44 1021.7
20260502234557 67 106 3.0 9.0 0.00 0.02 0.00 43 1021.9
20260502233053 66 218 2.0 7.0 0.00 0.02 0.00 42 1021.5
20260502231615 66 173 4.0 7.0 0.00 0.02 0.00 43 1021.5
20260502230056 66 194 1.0 6.0 0.00 0.02 0.00 43 1021.5
20260502224557 65 214 6.0 11.0 0.00 0.02 0.00 43 1021.8
20260502223057 66 196 3.0 8.0 0.00 0.02 0.00 42 1021.8
20260502221558 66 125 2.0 5.0 0.00 0.02 0.00 41 1021.9
20260502220057 66 115 2.0 7.0 0.00 0.02 0.00 42 1022.2
20260502214555 65 136 6.0 13.0 0.00 0.02 0.00 43 1022.3